FW3915 Weather Reports


Display with metric or nautical units.
time (UTC)temp
F
wind
direction
speed
MPH
gust
MPH
rain 1hr
in
rain 24hr
in
rain mn
in
humidity
%
barometer
mb
20260505023517 54 118 0.0 0.0 0.00 0.09 0.09 93 1010.1
20260505023017 54 118 0.0 0.0 0.00 0.09 0.09 93 1010.2
20260505022517 54 118 0.0 0.0 0.00 0.09 0.09 93 1010.1
20260505022017 54 118 0.0 0.0 0.00 0.09 0.09 93 1010.2
20260505021517 54 118 0.0 0.0 0.00 0.09 0.09 93 1010.2
20260505021016 54 118 0.0 0.0 0.00 0.09 0.09 93 1010.2
20260505020515 54 118 0.0 0.0 0.00 0.09 0.09 93 1010.2
20260505020015 54 118 0.0 0.0 0.00 0.09 0.09 93 1010.2
20260505015517 54 118 0.0 0.0 0.00 0.09 0.09 93 1010.1
20260505015015 54 118 0.0 0.0 0.00 0.09 0.09 93 1010.1
20260505014513 54 118 0.0 0.0 0.00 0.09 0.09 92 1010.1
20260505014012 54 118 0.0 0.0 0.00 0.09 0.09 92 1010.3
20260505013516 55 118 0.0 0.0 0.00 0.09 0.09 92 1010.3
20260505013012 54 118 0.0 0.0 0.00 0.09 0.09 92 1010.3
20260505012613 54 118 0.0 0.0 0.00 0.09 0.09 92 1010.3
20260505012011 55 118 0.0 0.0 0.00 0.09 0.09 92 1010.4
20260505011511 55 118 0.0 0.0 0.00 0.09 0.09 92 1010.4
20260505011009 55 118 0.0 0.0 0.00 0.09 0.09 92 1010.4
20260505010509 55 118 0.0 0.0 0.00 0.09 0.09 92 1010.5
20260505010009 55 118 0.0 0.0 0.00 0.09 0.09 92 1010.6
20260505005508 55 118 0.0 0.0 0.00 0.09 0.09 91 1010.7
20260505005008 55 118 0.0 0.0 0.00 0.09 0.09 91 1010.7
20260505004507 55 118 0.0 0.0 0.00 0.09 0.09 91 1010.8
20260505004007 55 118 0.0 0.0 0.00 0.09 0.09 91 1010.8
20260505003508 55 118 0.0 0.0 0.00 0.09 0.09 91 1010.7
20260505003005 55 118 0.0 0.0 0.01 0.09 0.09 90 1010.8
20260505002505 55 118 0.0 1.0 0.01 0.09 0.09 90 1010.8
20260505002004 55 118 0.0 1.0 0.01 0.09 0.09 89 1010.9
20260505001503 56 118 0.0 1.0 0.01 0.09 0.09 89 1010.9
20260505001004 56 118 0.0 1.0 0.01 0.09 0.09 88 1011.0
20260505000501 57 118 0.0 3.0 0.02 0.09 0.09 87 1011.0
20260505000001 57 118 1.0 4.0 0.02 0.09 0.09 86 1010.9
20260504235503 58 110 0.0 4.0 0.02 0.09 0.09 86 1010.9
20260504235001 58 130 1.0 4.0 0.04 0.09 0.09 86 1010.8
20260504234600 58 116 2.0 4.0 0.06 0.09 0.09 87 1010.9
20260504234100 57 116 1.0 4.0 0.07 0.09 0.09 87 1011.1
20260504233559 57 116 2.0 4.0 0.08 0.09 0.09 88 1011.0
20260504233109 57 116 1.0 4.0 0.08 0.08 0.08 89 1011.2
20260504232558 56 128 0.0 4.0 0.08 0.08 0.08 89 1011.4
20260504232057 56 121 0.0 4.0 0.08 0.08 0.08 89 1011.4
20260504231556 56 115 1.0 4.0 0.08 0.08 0.08 89 1011.5
20260504231054 56 116 0.0 0.0 0.08 0.08 0.08 89 1012.0
20260504230553 56 116 0.0 2.0 0.07 0.07 0.07 88 1012.0
20260504230052 56 116 0.0 2.0 0.06 0.06 0.06 88 1012.3
20260504225551 56 296 1.0 2.0 0.06 0.06 0.06 87 1012.7
20260504225049 57 296 0.0 2.0 0.05 0.05 0.05 86 1012.8
20260504224553 57 296 0.0 2.0 0.03 0.03 0.03 86 1012.9
20260504224045 58 296 0.0 1.0 0.02 0.02 0.02 84 1013.0
20260504223544 59 296 0.0 1.0 0.01 0.01 0.01 82 1013.0
20260504223059 59 296 0.0 0.0 0.00 0.00 0.00 78 1013.2
20260504222040 59 296 0.0 2.0 0.00 0.00 0.00 75 1013.4
20260504221539 60 275 0.0 2.0 0.00 0.00 0.00 74 1013.5
20260504221042 60 275 0.0 3.0 0.00 0.00 0.00 71 1013.5
20260504220537 61 286 0.0 4.0 0.00 0.00 0.00 70 1013.5
20260504220136 61 335 1.0 5.0 0.00 0.00 0.00 69 1013.4
20260504215600 60 248 0.0 5.0 0.00 0.00 0.00 70 1013.4
20260504215059 60 128 0.0 0.0 0.00 0.00 0.00 70 1012.5
20260504214554 61 128 0.0 0.0 0.00 0.00 0.00 68 1012.3
20260504214053 61 128 0.0 0.0 0.00 0.00 0.00 68 1012.3
20260504213553 61 128 0.0 0.0 0.00 0.00 0.00 68 1012.3
20260504213103 61 128 0.0 0.0 0.00 0.00 0.00 69 1012.2
20260504212554 61 128 0.0 0.0 0.00 0.00 0.00 69 1012.3
20260504212053 61 128 0.0 0.0 0.00 0.00 0.00 69 1012.3
20260504211553 61 128 0.0 0.0 0.00 0.00 0.00 68 1012.3
20260504211053 61 128 0.0 0.0 0.00 0.00 0.00 69 1012.3
20260504210553 60 128 0.0 0.0 0.00 0.00 0.00 69 1012.4
20260504210153 60 128 0.0 0.0 0.00 0.00 0.00 70 1012.4
20260504205558 60 128 0.0 0.0 0.00 0.00 0.00 69 1012.4
20260504205056 60 128 0.0 0.0 0.00 0.00 0.00 70 1012.4
20260504204550 60 128 0.0 0.0 0.00 0.00 0.00 70 1012.3
20260504204050 60 128 0.0 0.0 0.00 0.00 0.00 70 1012.3
20260504203550 61 128 0.0 0.0 0.00 0.00 0.00 68 1012.2
20260504203105 61 128 0.0 0.0 0.00 0.00 0.00 68 1012.4
20260504202550 61 128 0.0 0.0 0.00 0.00 0.00 67 1012.4
20260504202050 62 128 0.0 0.0 0.00 0.00 0.00 67 1012.4
20260504201555 62 128 0.0 0.0 0.00 0.00 0.00 66 1012.4
20260504201049 62 128 0.0 0.0 0.00 0.00 0.00 65 1012.4
20260504200549 63 128 0.0 0.0 0.00 0.00 0.00 63 1012.5
20260504200148 63 128 0.0 0.0 0.00 0.00 0.00 63 1012.6
20260504195552 64 128 0.0 0.0 0.00 0.00 0.00 61 1012.5
20260504195052 65 128 0.0 1.0 0.00 0.00 0.00 60 1012.5
20260504194546 65 128 0.0 1.0 0.00 0.00 0.00 60 1012.5
20260504194047 65 128 0.0 1.0 0.00 0.00 0.00 60 1012.4
20260504193547 64 128 0.0 2.0 0.00 0.00 0.00 60 1012.4
20260504193044 65 128 0.0 2.0 0.00 0.00 0.00 60 1012.4
20260504192543 64 128 0.0 2.0 0.00 0.00 0.00 60 1012.5
20260504192044 64 128 0.0 2.0 0.00 0.00 0.00 60 1012.4
20260504191549 64 128 0.0 2.0 0.00 0.00 0.00 60 1012.3
20260504191044 64 128 0.0 2.0 0.00 0.00 0.00 60 1012.3
20260504190543 64 128 0.0 2.0 0.00 0.00 0.00 60 1012.4
20260504190142 64 126 0.0 1.0 0.00 0.00 0.00 60 1012.3
20260504185547 64 126 0.0 2.0 0.00 0.00 0.00 61 1012.2
20260504185047 65 126 0.0 2.0 0.00 0.00 0.00 60 1012.2
20260504184546 65 126 0.0 2.0 0.00 0.00 0.00 59 1012.1
20260504184046 65 126 1.0 2.0 0.00 0.00 0.00 59 1012.1
20260504183546 65 126 0.0 2.0 0.00 0.00 0.00 59 1012.0
20260504183046 65 126 0.0 1.0 0.00 0.00 0.00 59 1012.1
20260504182546 65 126 0.0 0.0 0.00 0.00 0.00 59 1012.1
20260504182045 65 126 0.0 1.0 0.00 0.00 0.00 60 1012.1
20260504181646 66 126 0.0 1.0 0.00 0.00 0.00 59 1012.1
20260504181045 66 126 0.0 1.0 0.00 0.00 0.00 58 1012.1
20260504180545 67 126 0.0 2.0 0.00 0.00 0.00 58 1012.0
20260504175546 67 114 0.0 0.0 0.00 0.00 0.00 58 1012.1
20260504175047 67 114 0.0 2.0 0.00 0.00 0.00 57 1012.1
20260504174546 67 114 0.0 2.0 0.00 0.00 0.00 57 1012.1
20260504174046 68 126 0.0 2.0 0.00 0.00 0.00 56 1012.1
20260504173545 68 126 0.0 2.0 0.00 0.00 0.00 57 1012.1
20260504173146 68 126 0.0 1.0 0.00 0.00 0.00 56 1012.0
20260504172644 69 126 0.0 2.0 0.00 0.00 0.00 56 1012.1
20260504172044 69 121 0.0 2.0 0.00 0.00 0.00 56 1012.1
20260504171548 69 121 0.0 2.0 0.00 0.00 0.00 56 1012.2
20260504171043 70 121 0.0 4.0 0.00 0.00 0.00 55 1012.2
20260504170545 70 111 0.0 4.0 0.00 0.00 0.00 56 1012.2
20260504170142 70 85 0.0 2.0 0.00 0.00 0.00 56 1012.2
20260504151027 73 128 1.0 3.0 0.00 0.00 0.00 46 1012.6
20260504150525 73 25 0.0 3.0 0.00 0.00 0.00 48 1012.6
20260504141022 73 37 1.0 3.0 0.00 0.00 0.00 48 1013.0
20260504140523 73 360 0.0 3.0 0.00 0.00 0.00 49 1013.1
20260504130517 73 344 0.0 2.0 0.00 0.00 0.00 48 1013.4
20260504110508 70 58 0.0 3.0 0.00 0.00 0.00 50 1014.5
20260504100502 70 293 0.0 2.0 0.00 0.00 0.00 52 1015.1
20260504081544 63 247 0.0 2.0 0.00 0.00 0.00 62 1015.0
20260504081042 63 305 0.0 2.0 0.00 0.00 0.00 62 1014.9
20260504080544 62 257 1.0 4.0 0.00 0.00 0.00 63 1014.9
20260504080142 62 224 0.0 4.0 0.00 0.00 0.00 63 1014.9
20260504070136 59 5 0.0 3.0 0.00 0.00 0.00 66 1014.9
20260504050533 53 137 0.0 2.0 0.00 0.00 0.00 77 1014.2
20260504045530 52 360 0.0 0.0 0.00 0.00 0.00 79 1014.0
20260504045030 51 360 0.0 0.0 0.00 0.00 0.00 79 1014.0
20260504044538 51 360 0.0 0.0 0.00 0.00 0.00 79 1013.9
20260504044029 51 360 0.0 0.0 0.00 0.00 0.00 79 1013.9
20260504043528 50 360 0.0 0.0 0.00 0.00 0.00 80 1013.9
20260504043028 50 360 0.0 0.0 0.00 0.00 0.00 79 1013.9
20260504042527 50 360 0.0 0.0 0.00 0.00 0.00 79 1013.8
20260504042026 50 360 0.0 0.0 0.00 0.00 0.00 79 1013.8
20260504041526 50 360 0.0 0.0 0.00 0.00 0.00 79 1013.9
20260504041025 50 360 0.0 0.0 0.00 0.00 0.00 79 1013.9
20260504040524 50 360 0.0 0.0 0.00 0.00 0.00 79 1014.0
20260504040024 51 360 0.0 0.0 0.00 0.00 0.00 78 1014.2
20260504035523 51 360 0.0 0.0 0.00 0.00 0.00 78 1014.1
20260504035023 51 360 0.0 0.0 0.00 0.00 0.00 78 1014.1
20260504034522 50 360 0.0 0.0 0.00 0.00 0.00 79 1013.9
20260504034020 50 360 0.0 0.0 0.00 0.00 0.00 78 1014.0
20260504033521 50 360 0.0 0.0 0.00 0.00 0.00 78 1014.1
20260504033020 50 360 0.0 0.0 0.00 0.00 0.00 77 1014.0
20260504032521 51 360 0.0 0.0 0.00 0.00 0.00 76 1013.9
20260504032023 51 360 0.0 0.0 0.00 0.00 0.00 75 1013.9
20260504031519 52 360 0.0 0.0 0.00 0.00 0.00 74 1013.8
20260504031019 52 360 0.0 0.0 0.00 0.00 0.00 75 1013.8
20260504030520 51 360 0.0 0.0 0.00 0.00 0.00 77 1013.8
20260504030022 50 360 0.0 0.0 0.00 0.00 0.00 77 1013.9
20260504025519 50 360 0.0 0.0 0.00 0.00 0.00 77 1014.0
20260504025019 50 360 0.0 0.0 0.00 0.00 0.00 77 1013.9
20260504024518 50 360 0.0 0.0 0.00 0.00 0.00 77 1014.0
20260504024017 50 360 0.0 0.0 0.00 0.00 0.00 77 1014.1